Regional Weather Roundup
Issued by NWS Kansas City/Pleasant Hill, MO

Home | Current Version | Previous Version | Text Only | Print | Product List | Glossary On
Versions: 1 2 3 4 5 6 7 8 9 10 11 12 13 14 15 16 17 18 19 20 21 22 23 24 25 26 27 28 29 30 31 32 33 34 35 36 37 38 39 40 41 42 43 44 45 46 47 48 49 50
000
ASUS43 KEAX 300210
RWREAX

WEATHER ROUNDUP FOR EASTERN KANSAS AND NORTHWEST MISSOURI
NATIONAL WEATHER SERVICE KANSAS CITY/PLEASANT HILL MO
900 PM CDT MON MAY 29 2017

KSZ040-057-103>105-MOZ028-029-037-043-300300-
...KANSAS CITY METROPOLITAN AREA...

CITY           SKY/WX    TMP DP  RH WIND       PRES   REMARKS
K.C. INTL      PTCLDY    68  47  46 N7        29.99R
K.C. DOWNTOWN  CLEAR     74  47  38 W3        29.97R
LEES SUMMIT    CLEAR     71  50  47 CALM      29.99R
OLATHE - IXD   CLEAR     70  50  49 NW5       29.99S
OLATHE - OJC   CLEAR     72  49  44 CALM      29.99R
LAWRENCE       CLEAR     67  55  65 CALM      29.98S

$$

MOZ001>008-011>017-020>025-030>033-038>040-044>046-053-054-300300-
...NORTHERN AND CENTRAL MISSOURI...

CITY           SKY/WX    TMP DP  RH WIND       PRES   REMARKS
ST. JOSEPH     CLEAR     68  45  43 N9        29.99R
MOSBY          PTCLDY    68  52  56 CALM      29.98R
WARRENSBURG    CLEAR     70  48  46 W5        29.98R
WHITEMAN AFB   CLEAR     72  51  48 NW3       29.97R
CLINTON        CLEAR     72  52  49 NW5       29.98S
SEDALIA        CLEAR     71  54  54 W5        29.98S
WARSAW         NOT AVBL
CHILLICOTHE      N/A     65  51  60 CALM      29.98R
KIRKSVILLE     CLEAR     62  45  53 NW5       29.97S

$$

MOZ041-047>049-056>058-063>065-088>090-097-300300-
...EASTERN AND SOUTHERN MISSOURI...

CITY           SKY/WX    TMP DP  RH WIND       PRES   REMARKS
ST. LOUIS INTL PTCLDY    73  57  57 CALM      29.96R
SPIRIT OF STL  PTCLDY    63  61  93 SW3       29.94R
COLUMBIA       CLEAR     71  53  52 NW3       29.97R
JEFFERSON CITY PTCLDY    74  54  49 CALM      29.95R
ROLLA          CLEAR     65  52  62 W5        29.97R
OSAGE BEACH    CLEAR     64  57  78 CALM      29.98R
SPRINGFIELD    CLEAR     72  58  61 CALM      29.99R
BRANSON        CLEAR     70  59  68 CALM      30.02R
JOPLIN         CLEAR     72  56  57 CALM      29.99R
WEST PLAINS    CLEAR     69  58  67 CALM      30.01R

$$

IAZ060-094-KSZ022-034>040-054-083-096-NEZ052-066-093-300300-
...KANSAS...SOUTHEAST NEBRASKA AND IOWA...

CITY           SKY/WX    TMP DP  RH WIND       PRES   REMARKS
TOPEKA         CLEAR     72  53  51 CALM      29.98S
MANHATTAN      CLEAR     68  52  56 CALM      30.00R
EMPORIA        CLEAR     71  53  52 NW3       30.00R
CHANUTE        CLEAR     74  49  41 N5        29.99R
WICHITA        PTCLDY    76  50  40 N9        30.01R
OMAHA          PTCLDY    64  42  44 NW8       30.01R
LINCOLN        CLEAR     69  37  30 NW7       30.03R
LAMONI         CLEAR     63  41  44 NW8       29.98R
DES MOINES     PTCLDY    68  40  35 NW9       29.95R

$$




USA.gov is the U.S. government's official web portal to all federal, state and local government web resources and services.